This demonstration page uses our WeatherBlox Daily Observations layout. Learn more.

Left ArrowRight Arrow

36.17497, -115.13722

Hourly Observations for March 14, 2021

Temp ( °F °C ) Dew Point ( °F °C ) Humidity (%) Winds ( mph kmh ) Pressure ( in mb ) Visibility ( mi km ) Precip ( " mm )
12:53 am 00:53 Clear 45 7.2 26 -3.3 48 48 NW 6 9 30.10 1019 10 16 0.00 0.00
1:53 am 01:53 Clear 47 8.3 25 -3.9 42 42 NNE 3 6 30.09 1019 10 16 0.00 0.00
3:53 am 03:53 Clear 43 6.1 26 -3.3 51 51 W 5 7 30.10 1019 10 16 0.00 0.00
4:53 am 04:53 Clear 41 5 25 -3.9 53 53 WNW 7 11 30.09 1019 10 16 0.00 0.00
5:53 am 05:53 Clear 43 6.1 25 -3.9 49 49 S 5 7 30.08 1019 10 16 0.00 0.00
6:53 am 06:53 Sunny 39 3.9 24 -4.4 55 55 ENE 7 11 30.09 1019 10 16 0.00 0.00
7:53 am 07:53 Sunny 43 6.1 27 -2.8 53 53 NNE 7 11 30.11 1020 10 16 0.00 0.00
8:53 am 08:53 Sunny 48 8.9 27 -2.8 44 44 Calm 30.13 1020 10 16 0.00 0.00
9:53 am 09:53 Sunny 50 10 25 -3.9 38 38 Calm 30.14 1021 10 16 0.00 0.00
10:53 am 10:53 Sunny 55 12.8 25 -3.9 31 31 Calm 30.12 1020 10 16 0.00 0.00
11:53 am 11:53 Sunny 60 15.6 24 -4.4 25 25 ESE 7 11 30.09 1019 10 16 0.00 0.00
12:53 pm 12:53 Sunny 63 17.2 23 -5 22 22 SE 7 11 30.06 1018 10 16 0.00 0.00
1:53 pm 13:53 Sunny 66 18.9 21 -6.1 18 18 SSE 8 13 30.01 1016 10 16 0.00 0.00
2:53 pm 14:53 Sunny 68 20 19 -7.2 15 15 S 9 15 29.96 1015 10 16 0.00 0.00
3:53 pm 15:53 Sunny 69 20.6 18 -7.8 14 14 SE 3 6 29.95 1014 10 16 0.00 0.00
4:53 pm 16:53 Sunny 69 20.6 18 -7.8 14 14 ESE 5 7 29.94 1014 10 16 0.00 0.00
5:53 pm 17:53 Sunny 68 20 20 -6.7 16 16 SE 9 15 29.93 1014 10 16 0.00 0.00
6:53 pm 18:53 Clear 65 18.3 21 -6.1 19 19 ESE 7 11 29.94 1014 10 16 0.00 0.00
7:53 pm 19:53 Clear 63 17.2 21 -6.1 20 20 ENE 3 6 29.94 1014 10 16 0.00 0.00
8:53 pm 20:53 Clear 60 15.6 24 -4.4 25 25 N 5 7 29.93 1013 10 16 0.00 0.00
9:53 pm 21:53 Clear 59 15 24 -4.4 26 26 NE 5 7 29.91 1013 10 16 0.00 0.00
10:53 pm 22:53 Clear 58 14.4 25 -3.9 28 28 NE 6 9 29.89 1012 10 16 0.00 0.00
11:53 pm 23:53 Clear 56 13.3 25 -3.9 30 30 NNW 3 6 29.88 1012 10 16 0.00 0.00

Powered by AerisWeather